QPF
0.03 0.03 0.03 0.03 0.04 0.04 0.03 0.03 0.03 0.04 0.04 0.05 0.06 0.06 0.05 0.04 0.03 0.02 0.01 0.01 0.00 0.00 0.00 0.00 0.00 0.00 0.00 0.00 0.00 0.00 0.00 0.00 0.00 0.00 0.00 0.00 0.00 0.00 0.00 0.00 0.00 0.00 0.00
0.03 0.03 0.04 0.04 0.04 0.04 0.04 0.03 0.03 0.03 0.03 0.04 0.04 0.04 0.03 0.02 0.02 0.01 0.01 0.00 0.00 0.00 0.00 0.00 0.00 0.00 0.00 0.00 0.00 0.00 0.00 0.00 0.00 0.00 0.00 0.00 0.00 0.00 0.00 0.00 0.00 0.00 0.00
0.03 0.04 0.04 0.04 0.04 0.04 0.04 0.03 0.03 0.03 0.03 0.03 0.03 0.03 0.02 0.02 0.01 0.01 0.01 0.01 0.01 0.00 0.00 0.00 0.00 0.00 0.00 0.00 0.00 0.00 0.00 0.00 0.00 0.00 0.00 0.00 0.00 0.00 0.00 0.00 0.00 0.00 0.00
0.03 0.04 0.04 0.04 0.04 0.04 0.04 0.03 0.03 0.03 0.03 0.02 0.02 0.02 0.01 0.01 0.01 0.01 0.01 0.01 0.00 0.00 0.00 0.00 0.00 0.00 0.00 0.00 0.00 0.00 0.00 0.00 0.00 0.00 0.00 0.00 0.00 0.00 0.00 0.00 0.00 0.00 0.00
0.04 0.04 0.04 0.04 0.04 0.03 0.03 0.03 0.03 0.02 0.02 0.02 0.01 0.01 0.01 0.02 0.02 0.01 0.01 0.01 0.01 0.00 0.00 0.00 0.00 0.00 0.00 0.00 0.00 0.00 0.00 0.00 0.00 0.00 0.00 0.00 0.00 0.00 0.00 0.00 0.00 0.00 0.00
0.05 0.05 0.05 0.04 0.03 0.03 0.03 0.02 0.02 0.02 0.02 0.02 0.02 0.02 0.02 0.02 0.02 0.02 0.01 0.01 0.01 0.00 0.00 0.00 0.00 0.00 0.00 0.00 0.00 0.00 0.00 0.00 0.00 0.00 0.01 0.00 0.00 0.00 0.00 0.00 0.00 0.00 0.00
0.05 0.05 0.05 0.05 0.04 0.04 0.03 0.03 0.03 0.03 0.03 0.03 0.04 0.04 0.04 0.03 0.02 0.01 0.01 0.01 0.00 0.00 0.00 0.00 0.00 0.00 0.00 0.00 0.00 0.00 0.00 0.00 0.00 0.01 0.01 0.00 0.00 0.00 0.00 0.01 0.01 0.01 0.01
0.08 0.07 0.07 0.07 0.07 0.07 0.07 0.06 0.05 0.05 0.06 0.06 0.06 0.05 0.04 0.02 0.02 0.01 0.00 0.00 0.00 0.00 0.00 0.00 0.00 0.00 0.00 0.00 0.00 0.00 0.00 0.00 0.00 0.00 0.00 0.00 0.00 0.00 0.01 0.02 0.02 0.01 0.00
0.10 0.10 0.10 0.10 0.10 0.09 0.09 0.09 0.09 0.09 0.08 0.07 0.05 0.03 0.02 0.01 0.01 0.00 0.00 0.00 0.00 0.00 0.00 0.00 0.00 0.00 0.00 0.00 0.00 0.00 0.00 0.00 0.00 0.00 0.00 0.00 0.00 0.00 0.00 0.00 0.00 0.01 0.01
0.10 0.11 0.11 0.10 0.11 0.12 0.13 0.14 0.13 0.11 0.08 0.05 0.03 0.02 0.01 0.00 0.00 0.00 0.00 0.00 0.00 0.00 0.00 0.00 0.00 0.00 0.00 0.01 0.01 0.01 0.01 0.00 0.00 0.00 0.00 0.00 0.00 0.00 0.00 0.00 0.00 0.03 0.03
0.15 0.15 0.15 0.14 0.15 0.16 0.16 0.13 0.10 0.07 0.04 0.02 0.01 0.01 0.00 0.00 0.00 0.00 0.00 0.00 0.00 0.00 0.00 0.00 0.00 0.00 0.00 0.01 0.01 0.01 0.00 0.00 0.00 0.00 0.00 0.00 0.00 0.00 0.00 0.00 0.00 0.02 0.05
0.19 0.19 0.18 0.17 0.14 0.11 0.09 0.07 0.04 0.03 0.01 0.01 0.00 0.00 0.00 0.00 0.00 0.00 0.00 0.00 0.00 0.00 0.00 0.00 0.00 0.00 0.01 0.01 0.00 0.00 0.00 0.00 0.00 0.00 0.00 0.00 0.00 0.00 0.00 0.00 0.00 0.00 0.01
0.16 0.15 0.13 0.10 0.07 0.05 0.03 0.02 0.01 0.01 0.00 0.00 0.00 0.00 0.00 0.00 0.00 0.00 0.00 0.00 0.00 0.00 0.00 0.00 0.00 0.00 0.00 0.00 0.00 0.00 0.00 0.00 0.00 0.00 0.00 0.00 0.00 0.00 0.00 0.00 0.00 0.00 0.00
0.08 0.07 0.05 0.04 0.03 0.01 0.01 0.00 0.00 0.00 0.00 0.00 0.00 0.00 0.00 0.00 0.00 0.00 0.00 0.00 0.00 0.00 0.00 0.00 0.00 0.00 0.00 0.00 0.00 0.00 0.00 0.00 0.00 0.00 0.00 0.00 0.00 0.00 0.00 0.00 0.00 0.01 0.01
0.02 0.02 0.01 0.01 0.00 0.00 0.00 0.00 0.00 0.00 0.00 0.00 0.00 0.00 0.00 0.00 0.00 0.00 0.00 0.00 0.00 0.00 0.00 0.00 0.00 0.00 0.00 0.00 0.00 0.00 0.00 0.00 0.00 0.00 0.01 0.01 0.00 0.00 0.00 0.00 0.00 0.01 0.01
0.00 0.00 0.00 0.00 0.00 0.00 0.00 0.00 0.00 0.00 0.00 0.00 0.00 0.00 0.00 0.00 0.00 0.00 0.00 0.00 0.00 0.00 0.00 0.00 0.00 0.00 0.00 0.00 0.00 0.00 0.00 0.00 0.00 0.01 0.01 0.01 0.01 0.01 0.01 0.00 0.00 0.01 0.01
0.00 0.00 0.00 0.00 0.00 0.00 0.00 0.00 0.00 0.00 0.00 0.00 0.00 0.00 0.00 0.00 0.00 0.00 0.00 0.00 0.00 0.00 0.00 0.00 0.00 0.00 0.00 0.00 0.00 0.00 0.00 0.00 0.00 0.01 0.01 0.01 0.02 0.01 0.01 0.01 0.01 0.01 0.01
0.00 0.00 0.00 0.00 0.00 0.00 0.00 0.00 0.00 0.00 0.00 0.00 0.00 0.00 0.00 0.00 0.00 0.00 0.00 0.00 0.00 0.00 0.00 0.00 0.00 0.00 0.00 0.00 0.00 0.01 0.01 0.00 0.00 0.01 0.01 0.01 0.02 0.02 0.02 0.01 0.01 0.01 0.02
0.00 0.00 0.00 0.00 0.00 0.00 0.00 0.00 0.00 0.00 0.00 0.00 0.00 0.00 0.00 0.00 0.00 0.00 0.00 0.00 0.00 0.00 0.00 0.00 0.00 0.00 0.00 0.01 0.01 0.01 0.01 0.01 0.01 0.01 0.01 0.01 0.02 0.03 0.02 0.01 0.01 0.01 0.01
0.00 0.00 0.00 0.00 0.00 0.00 0.00 0.00 0.00 0.00 0.00 0.00 0.00 0.00 0.00 0.00 0.00 0.00 0.00 0.00 0.00 0.00 0.00 0.00 0.00 0.00 0.01 0.01 0.01 0.01 0.01 0.01 0.01 0.02 0.01 0.02 0.02 0.03 0.03 0.02 0.02 0.02 0.02
0.00 0.00 0.00 0.00 0.00 0.00 0.00 0.00 0.00 0.00 0.00 0.00 0.00 0.00 0.00 0.00 0.00 0.00 0.00 0.00 0.00 0.00 0.00 0.00 0.00 0.01 0.01 0.01 0.01 0.01 0.01 0.01 0.02 0.02 0.02 0.02 0.02 0.02 0.02 0.02 0.02 0.02 0.02
0.00 0.00 0.00 0.00 0.00 0.00 0.00 0.00 0.00 0.00 0.00 0.00 0.00 0.00 0.00 0.00 0.00 0.00 0.00 0.00 0.00 0.00 0.01 0.01 0.01 0.01 0.02 0.03 0.03 0.03 0.03 0.02 0.02 0.03 0.02 0.02 0.02 0.02 0.02 0.02 0.02 0.02 0.03
0.00 0.00 0.00 0.00 0.00 0.00 0.00 0.00 0.00 0.00 0.00 0.00 0.00 0.00 0.00 0.00 0.00 0.00 0.00 0.00 0.00 0.00 0.00 0.01 0.01 0.01 0.01 0.02 0.04 0.06 0.07 0.06 0.04 0.04 0.05 0.05 0.04 0.03 0.03 0.03 0.03 0.03 0.02
0.00 0.00 0.00 0.00 0.00 0.00 0.00 0.00 0.00 0.00 0.00 0.00 0.00 0.00 0.00 0.00 0.00 0.00 0.00 0.00 0.00 0.00 0.00 0.01 0.01 0.01 0.01 0.02 0.03 0.04 0.05 0.06 0.07 0.08 0.09 0.08 0.06 0.04 0.04 0.03 0.02 0.02 0.02
0.00 0.00 0.00 0.00 0.00 0.00 0.00 0.00 0.00 0.00 0.00 0.00 0.00 0.00 0.00 0.00 0.00 0.00 0.00 0.00 0.00 0.00 0.00 0.00 0.01 0.01 0.02 0.02 0.03 0.03 0.03 0.04 0.06 0.07 0.06 0.05 0.04 0.03 0.02 0.02 0.02 0.01 0.01
0.00 0.00 0.00 0.00 0.00 0.00 0.00 0.00 0.00 0.00 0.00 0.00 0.00 0.00 0.00 0.00 0.00 0.00 0.00 0.00 0.00 0.00 0.00 0.00 0.00 0.01 0.02 0.02 0.02 0.02 0.03 0.03 0.03 0.03 0.03 0.02 0.02 0.02 0.02 0.02 0.01 0.01 0.01
MSLP
1005.30 1005.74 1006.35 1007.06 1007.84 1008.65 1009.48 1010.31 1011.15 1011.99 1012.85 1013.70 1014.54 1015.37 1016.15 1016.89 1017.57 1018.18 1018.74 1019.24 1019.69 1020.10 1020.47 1020.79 1021.07 1021.30 1021.47 1021.60 1021.68 1021.73 1021.75 1021.74 1021.70 1021.63 1021.51 1021.33 1021.07 1020.73 1020.30 1019.80 1019.24 1018.65 1018.06
1005.71 1006.12 1006.66 1007.30 1008.02 1008.79 1009.60 1010.42 1011.27 1012.14 1013.03 1013.92 1014.80 1015.65 1016.46 1017.21 1017.89 1018.51 1019.05 1019.52 1019.94 1020.30 1020.60 1020.84 1021.03 1021.17 1021.26 1021.31 1021.33 1021.33 1021.33 1021.31 1021.28 1021.22 1021.11 1020.94 1020.69 1020.34 1019.90 1019.37 1018.77 1018.14 1017.50
1006.37 1006.76 1007.25 1007.84 1008.50 1009.22 1009.98 1010.78 1011.62 1012.49 1013.39 1014.29 1015.17 1016.03 1016.84 1017.58 1018.25 1018.84 1019.35 1019.80 1020.17 1020.47 1020.71 1020.88 1020.99 1021.05 1021.05 1021.02 1020.98 1020.92 1020.87 1020.83 1020.79 1020.72 1020.62 1020.45 1020.19 1019.84 1019.38 1018.83 1018.21 1017.54 1016.86
1007.26 1007.65 1008.13 1008.68 1009.29 1009.95 1010.67 1011.43 1012.24 1013.08 1013.95 1014.83 1015.69 1016.52 1017.29 1017.99 1018.62 1019.18 1019.65 1020.05 1020.37 1020.62 1020.80 1020.91 1020.95 1020.93 1020.86 1020.75 1020.63 1020.52 1020.41 1020.33 1020.25 1020.16 1020.04 1019.85 1019.59 1019.22 1018.75 1018.19 1017.55 1016.86 1016.16
1008.34 1008.76 1009.25 1009.78 1010.35 1010.97 1011.64 1012.35 1013.11 1013.90 1014.72 1015.55 1016.35 1017.11 1017.82 1018.46 1019.02 1019.51 1019.93 1020.27 1020.54 1020.74 1020.87 1020.92 1020.90 1020.81 1020.67 1020.50 1020.31 1020.12 1019.95 1019.80 1019.67 1019.54 1019.38 1019.17 1018.89 1018.52 1018.04 1017.48 1016.84 1016.15 1015.43
1009.56 1010.03 1010.54 1011.07 1011.62 1012.21 1012.83 1013.49 1014.19 1014.92 1015.66 1016.41 1017.12 1017.80 1018.41 1018.95 1019.43 1019.83 1020.17 1020.45 1020.66 1020.81 1020.88 1020.89 1020.82 1020.68 1020.48 1020.24 1019.98 1019.73 1019.48 1019.26 1019.07 1018.88 1018.67 1018.43 1018.13 1017.75 1017.29 1016.73 1016.11 1015.43 1014.73
1010.86 1011.38 1011.92 1012.46 1013.00 1013.56 1014.15 1014.76 1015.39 1016.04 1016.70 1017.35 1017.96 1018.51 1019.01 1019.45 1019.81 1020.12 1020.37 1020.57 1020.71 1020.80 1020.83 1020.79 1020.68 1020.49 1020.25 1019.96 1019.64 1019.32 1019.01 1018.72 1018.45 1018.20 1017.95 1017.68 1017.36 1016.98 1016.53 1016.00 1015.41 1014.76 1014.09
1012.16 1012.73 1013.29 1013.83 1014.38 1014.92 1015.47 1016.03 1016.60 1017.18 1017.74 1018.28 1018.77 1019.21 1019.58 1019.89 1020.14 1020.34 1020.50 1020.61 1020.69 1020.72 1020.69 1020.61 1020.46 1020.24 1019.96 1019.63 1019.27 1018.89 1018.52 1018.18 1017.86 1017.55 1017.26 1016.96 1016.63 1016.25 1015.82 1015.32 1014.77 1014.16 1013.52
1013.40 1013.99 1014.56 1015.12 1015.65 1016.18 1016.69 1017.21 1017.72 1018.22 1018.69 1019.12 1019.50 1019.82 1020.07 1020.26 1020.40 1020.49 1020.54 1020.57 1020.57 1020.54 1020.47 1020.35 1020.17 1019.92 1019.62 1019.26 1018.87 1018.46 1018.05 1017.67 1017.30 1016.96 1016.64 1016.31 1015.97 1015.60 1015.18 1014.72 1014.21 1013.64 1013.04
1014.54 1015.12 1015.69 1016.24 1016.76 1017.26 1017.74 1018.21 1018.66 1019.09 1019.48 1019.82 1020.10 1020.30 1020.44 1020.52 1020.55 1020.55 1020.51 1020.46 1020.39 1020.31 1020.19 1020.03 1019.82 1019.56 1019.24 1018.87 1018.47 1018.04 1017.62 1017.21 1016.82 1016.46 1016.11 1015.77 1015.42 1015.05 1014.65 1014.20 1013.72 1013.18 1012.61
1015.55 1016.11 1016.66 1017.18 1017.67 1018.14 1018.59 1019.01 1019.41 1019.77 1020.09 1020.34 1020.53 1020.65 1020.70 1020.68 1020.63 1020.53 1020.42 1020.30 1020.18 1020.04 1019.88 1019.69 1019.46 1019.19 1018.86 1018.50 1018.09 1017.67 1017.25 1016.84 1016.44 1016.06 1015.70 1015.34 1014.98 1014.60 1014.20 1013.76 1013.28 1012.76 1012.19
1016.44 1016.96 1017.47 1017.95 1018.41 1018.84 1019.25 1019.62 1019.97 1020.27 1020.52 1020.71 1020.82 1020.87 1020.84 1020.76 1020.63 1020.48 1020.31 1020.13 1019.96 1019.78 1019.59 1019.37 1019.13 1018.85 1018.53 1018.18 1017.79 1017.38 1016.97 1016.57 1016.17 1015.78 1015.40 1015.03 1014.65 1014.24 1013.81 1013.35 1012.85 1012.31 1011.73
1017.22 1017.70 1018.16 1018.60 1019.01 1019.40 1019.76 1020.09 1020.38 1020.63 1020.82 1020.95 1021.01 1021.00 1020.92 1020.79 1020.61 1020.41 1020.20 1019.99 1019.78 1019.57 1019.35 1019.13 1018.88 1018.60 1018.28 1017.94 1017.57 1017.19 1016.79 1016.39 1016.00 1015.60 1015.20 1014.80 1014.38 1013.93 1013.46 1012.95 1012.40 1011.82 1011.19
1017.92 1018.36 1018.77 1019.16 1019.53 1019.87 1020.18 1020.46 1020.71 1020.91 1021.05 1021.13 1021.14 1021.08 1020.96 1020.79 1020.59 1020.36 1020.13 1019.89 1019.66 1019.44 1019.21 1018.97 1018.72 1018.44 1018.14 1017.81 1017.45 1017.08 1016.70 1016.30 1015.90 1015.48 1015.05 1014.60 1014.13 1013.62 1013.08 1012.50 1011.89 1011.24 1010.56
1018.58 1018.97 1019.34 1019.68 1020.00 1020.30 1020.56 1020.80 1021.00 1021.15 1021.24 1021.28 1021.25 1021.15 1021.00 1020.81 1020.59 1020.35 1020.10 1019.86 1019.62 1019.39 1019.15 1018.91 1018.66 1018.38 1018.08 1017.76 1017.41 1017.04 1016.65 1016.25 1015.82 1015.38 1014.90 1014.40 1013.86 1013.28 1012.65 1011.99 1011.30 1010.57 1009.82
1019.18 1019.54 1019.87 1020.18 1020.45 1020.71 1020.94 1021.13 1021.28 1021.39 1021.44 1021.43 1021.36 1021.24 1021.06 1020.85 1020.62 1020.37 1020.12 1019.88 1019.64 1019.41 1019.18 1018.94 1018.68 1018.40 1018.10 1017.76 1017.41 1017.02 1016.61 1016.18 1015.72 1015.22 1014.69 1014.12 1013.51 1012.85 1012.14 1011.40 1010.62 1009.82 1008.99
1019.74 1020.06 1020.36 1020.64 1020.88 1021.10 1021.30 1021.45 1021.57 1021.63 1021.64 1021.59 1021.49 1021.33 1021.13 1020.91 1020.66 1020.41 1020.17 1019.93 1019.70 1019.47 1019.24 1019.00 1018.73 1018.44 1018.13 1017.77 1017.39 1016.97 1016.52 1016.04 1015.52 1014.97 1014.38 1013.74 1013.05 1012.32 1011.54 1010.72 1009.87 1009.00 1008.12
1020.22 1020.52 1020.80 1021.05 1021.27 1021.46 1021.63 1021.76 1021.84 1021.87 1021.84 1021.75 1021.61 1021.42 1021.20 1020.96 1020.71 1020.46 1020.22 1019.99 1019.76 1019.54 1019.31 1019.06 1018.78 1018.47 1018.12 1017.73 1017.30 1016.84 1016.33 1015.79 1015.21 1014.59 1013.93 1013.22 1012.47 1011.67 1010.84 1009.97 1009.07 1008.16 1007.23
1020.62 1020.90 1021.15 1021.38 1021.59 1021.76 1021.91 1022.01 1022.07 1022.06 1022.00 1021.88 1021.71 1021.50 1021.26 1021.00 1020.75 1020.49 1020.26 1020.03 1019.80 1019.58 1019.34 1019.08 1018.78 1018.44 1018.05 1017.61 1017.12 1016.59 1016.01 1015.40 1014.74 1014.06 1013.33 1012.57 1011.77 1010.93 1010.06 1009.16 1008.25 1007.31 1006.37
1020.92 1021.18 1021.41 1021.63 1021.82 1021.99 1022.12 1022.20 1022.24 1022.21 1022.13 1021.98 1021.79 1021.56 1021.30 1021.03 1020.76 1020.51 1020.27 1020.03 1019.81 1019.57 1019.32 1019.03 1018.70 1018.32 1017.87 1017.37 1016.82 1016.21 1015.56 1014.87 1014.14 1013.39 1012.61 1011.80 1010.97 1010.11 1009.23 1008.33 1007.42 1006.49 1005.56
1021.13 1021.37 1021.59 1021.79 1021.98 1022.13 1022.26 1022.33 1022.35 1022.31 1022.21 1022.05 1021.84 1021.59 1021.32 1021.04 1020.77 1020.50 1020.25 1020.01 1019.77 1019.51 1019.23 1018.91 1018.53 1018.09 1017.59 1017.02 1016.39 1015.71 1014.98 1014.22 1013.43 1012.62 1011.80 1010.96 1010.11 1009.25 1008.39 1007.51 1006.63 1005.73 1004.83
1021.26 1021.49 1021.70 1021.89 1022.07 1022.22 1022.33 1022.40 1022.41 1022.36 1022.25 1022.08 1021.86 1021.61 1021.33 1021.05 1020.77 1020.49 1020.22 1019.96 1019.69 1019.40 1019.08 1018.71 1018.27 1017.77 1017.20 1016.56 1015.86 1015.10 1014.31 1013.48 1012.64 1011.79 1010.94 1010.09 1009.24 1008.40 1007.56 1006.73 1005.89 1005.05 1004.19
1021.36 1021.57 1021.77 1021.96 1022.13 1022.27 1022.38 1022.44 1022.44 1022.39 1022.28 1022.11 1021.89 1021.63 1021.36 1021.07 1020.77 1020.48 1020.19 1019.89 1019.58 1019.24 1018.86 1018.43 1017.93 1017.36 1016.72 1016.01 1015.24 1014.43 1013.58 1012.70 1011.83 1010.95 1010.09 1009.24 1008.41 1007.60 1006.80 1006.01 1005.23 1004.45 1003.66
1021.43 1021.64 1021.84 1022.02 1022.18 1022.31 1022.41 1022.46 1022.46 1022.41 1022.30 1022.13 1021.92 1021.67 1021.39 1021.09 1020.78 1020.46 1020.13 1019.79 1019.43 1019.03 1018.58 1018.08 1017.51 1016.87 1016.17 1015.40 1014.57 1013.71 1012.82 1011.92 1011.03 1010.14 1009.29 1008.45 1007.65 1006.87 1006.12 1005.39 1004.67 1003.94 1003.22
1021.52 1021.73 1021.92 1022.09 1022.23 1022.35 1022.44 1022.48 1022.48 1022.42 1022.31 1022.15 1021.95 1021.70 1021.42 1021.11 1020.78 1020.43 1020.05 1019.66 1019.23 1018.76 1018.24 1017.66 1017.02 1016.32 1015.56 1014.74 1013.88 1012.99 1012.08 1011.17 1010.28 1009.40 1008.56 1007.76 1006.99 1006.26 1005.55 1004.87 1004.20 1003.54 1002.87
1021.61 1021.82 1022.00 1022.16 1022.29 1022.39 1022.46 1022.49 1022.48 1022.42 1022.31 1022.15 1021.95 1021.70 1021.41 1021.09 1020.73 1020.34 1019.92 1019.47 1018.97 1018.42 1017.83 1017.18 1016.48 1015.72 1014.91 1014.06 1013.18 1012.27 1011.37 1010.47 1009.59 1008.75 1007.94 1007.16 1006.44 1005.74 1005.08 1004.45 1003.83 1003.22 1002.61
Thickness
5587 5589 5588 5586 5584 5582 5581 5579 5577 5573 5570 5567 5563 5558 5554 5548 5543 5537 5532 5526 5521 5516 5510 5504 5498 5493 5486 5480 5473 5466 5459 5452 5448 5448 5441 5436 5430 5426 5423 5418 5414 5411 5407
5568 5569 5569 5568 5567 5566 5565 5565 5564 5561 5558 5555 5551 5547 5542 5536 5531 5526 5521 5515 5510 5504 5499 5492 5487 5481 5475 5468 5461 5454 5448 5441 5435 5433 5428 5421 5415 5410 5406 5402 5398 5393 5387
5548 5549 5550 5551 5551 5552 5552 5551 5551 5549 5546 5543 5539 5535 5530 5525 5519 5514 5509 5504 5498 5492 5486 5480 5475 5469 5462 5456 5449 5442 5436 5430 5423 5417 5415 5408 5402 5395 5391 5386 5381 5374 5366
5529 5531 5533 5535 5537 5538 5539 5538 5538 5537 5534 5531 5527 5523 5518 5513 5508 5503 5497 5491 5485 5479 5473 5468 5462 5456 5450 5444 5437 5430 5423 5416 5409 5402 5399 5394 5387 5380 5373 5368 5366 5357 5348
5511 5514 5517 5521 5523 5525 5526 5526 5526 5525 5522 5519 5515 5510 5506 5501 5496 5491 5485 5479 5473 5466 5460 5455 5450 5445 5440 5433 5427 5419 5411 5403 5395 5388 5384 5378 5371 5363 5355 5349 5346 5342 5333
5496 5499 5503 5508 5510 5512 5513 5514 5513 5511 5509 5506 5502 5497 5493 5490 5485 5480 5474 5467 5461 5454 5447 5442 5437 5432 5426 5420 5414 5407 5399 5390 5382 5374 5368 5360 5353 5344 5338 5331 5325 5323 5322
5484 5487 5491 5495 5498 5500 5501 5501 5500 5498 5496 5492 5488 5485 5481 5477 5474 5469 5464 5456 5449 5441 5435 5429 5424 5418 5411 5404 5398 5392 5383 5374 5366 5358 5351 5341 5334 5327 5320 5315 5308 5304 5303
5474 5477 5480 5484 5487 5488 5489 5488 5487 5486 5483 5480 5476 5472 5469 5466 5463 5459 5453 5444 5436 5430 5424 5417 5410 5404 5397 5392 5387 5378 5368 5358 5349 5341 5333 5326 5317 5311 5304 5300 5296 5294 5293
5468 5470 5471 5475 5477 5478 5478 5477 5476 5474 5471 5468 5465 5462 5459 5456 5452 5447 5441 5432 5425 5418 5411 5404 5398 5391 5386 5381 5374 5364 5355 5345 5335 5326 5318 5311 5304 5297 5291 5287 5282 5280 5283
5464 5465 5466 5468 5469 5469 5468 5467 5466 5464 5461 5458 5455 5452 5448 5444 5441 5436 5431 5422 5415 5407 5399 5391 5385 5379 5373 5366 5358 5349 5341 5332 5323 5313 5303 5295 5289 5283 5278 5273 5269 5266 5268
5461 5461 5462 5462 5462 5461 5460 5459 5457 5454 5451 5448 5444 5440 5436 5432 5428 5424 5419 5410 5402 5395 5387 5380 5372 5366 5359 5351 5343 5333 5324 5319 5309 5298 5290 5284 5279 5274 5270 5264 5260 5255 5255
5458 5458 5457 5457 5457 5455 5453 5450 5448 5445 5441 5437 5433 5428 5423 5419 5415 5411 5405 5398 5392 5383 5375 5367 5360 5354 5346 5336 5326 5317 5310 5302 5291 5284 5279 5275 5271 5267 5263 5259 5254 5250 5246
5456 5454 5452 5451 5449 5447 5445 5442 5439 5435 5431 5426 5421 5416 5411 5406 5401 5397 5392 5386 5379 5371 5363 5356 5348 5340 5330 5318 5309 5302 5294 5284 5278 5274 5270 5267 5264 5261 5258 5255 5252 5248 5245
5452 5449 5447 5444 5441 5439 5436 5434 5430 5425 5421 5416 5411 5405 5399 5394 5390 5386 5380 5373 5367 5359 5350 5341 5332 5321 5311 5302 5295 5287 5280 5276 5272 5268 5265 5262 5259 5256 5252 5249 5245 5243 5243
5447 5444 5440 5437 5434 5430 5427 5424 5420 5416 5412 5407 5402 5396 5391 5385 5382 5379 5371 5365 5356 5347 5337 5324 5313 5303 5294 5288 5283 5278 5275 5271 5267 5263 5260 5257 5254 5251 5248 5243 5239 5237 5236
5442 5437 5433 5429 5425 5421 5417 5413 5412 5409 5405 5401 5396 5391 5385 5380 5375 5368 5361 5353 5343 5333 5319 5306 5296 5288 5282 5278 5275 5273 5271 5267 5263 5259 5256 5253 5250 5247 5244 5241 5237 5234 5234
5435 5430 5425 5421 5416 5412 5408 5404 5399 5397 5395 5391 5386 5382 5377 5370 5364 5356 5348 5338 5327 5316 5302 5292 5284 5279 5275 5272 5270 5268 5267 5265 5261 5257 5254 5251 5247 5244 5241 5240 5237 5235 5235
5427 5424 5418 5412 5408 5404 5400 5396 5391 5387 5382 5377 5374 5370 5365 5359 5351 5343 5333 5322 5310 5301 5291 5283 5278 5274 5272 5270 5268 5267 5265 5263 5260 5256 5253 5250 5246 5243 5241 5239 5238 5237 5238
5420 5414 5409 5405 5401 5397 5393 5388 5383 5379 5373 5368 5363 5358 5353 5346 5338 5328 5318 5306 5297 5290 5284 5279 5275 5272 5270 5268 5267 5265 5263 5261 5259 5256 5253 5250 5247 5244 5243 5242 5242 5243 5244
5412 5409 5403 5398 5393 5389 5385 5380 5376 5370 5365 5359 5353 5347 5340 5333 5323 5314 5305 5297 5289 5284 5279 5276 5273 5271 5269 5268 5266 5264 5263 5261 5259 5257 5254 5253 5251 5248 5247 5247 5248 5249 5251
5405 5401 5397 5391 5386 5382 5377 5372 5367 5362 5356 5349 5343 5337 5333 5321 5311 5302 5295 5290 5284 5279 5276 5273 5272 5270 5269 5268 5266 5265 5262 5262 5260 5258 5257 5256 5255 5254 5254 5254 5255 5256 5257
5398 5393 5388 5383 5379 5375 5370 5365 5359 5353 5347 5340 5333 5326 5321 5311 5301 5294 5288 5284 5279 5275 5273 5271 5271 5270 5269 5268 5267 5265 5264 5264 5264 5262 5261 5261 5260 5260 5260 5261 5261 5262 5263
5391 5386 5381 5376 5372 5368 5361 5356 5350 5344 5337 5330 5323 5316 5308 5300 5293 5287 5282 5278 5275 5273 5271 5270 5270 5270 5270 5269 5268 5267 5266 5267 5267 5265 5265 5266 5266 5266 5265 5265 5266 5266 5268
5383 5378 5373 5368 5363 5358 5353 5347 5341 5335 5328 5321 5313 5305 5297 5290 5284 5280 5276 5273 5271 5271 5270 5269 5270 5270 5270 5270 5270 5270 5270 5270 5270 5270 5271 5271 5270 5270 5269 5269 5269 5270 5271
5375 5371 5366 5360 5355 5350 5344 5338 5332 5324 5317 5310 5302 5295 5287 5282 5277 5273 5271 5269 5269 5269 5270 5270 5271 5271 5271 5272 5272 5273 5274 5275 5276 5276 5276 5275 5273 5272 5272 5272 5272 5273 5274
5368 5363 5358 5352 5347 5341 5335 5329 5321 5314 5306 5299 5291 5284 5278 5274 5271 5269 5267 5267 5267 5268 5269 5271 5272 5272 5273 5274 5275 5277 5278 5279 5280 5280 5280 5278 5276 5275 5275 5276 5276 5276 5277